GFSFLT2_prec_precacc24_114.txt.gz
Total_Precipitation_Accumulation
0.00 0.00 0.00 0.00 0.00 0.00 0.00 0.00 0.00 0.02 0.08 0.14 0.35 0.43 0.24 0.08 0.15 0.32 0.55 0.49 0.36 0.08 0.13 0.17 0.06 0.12 0.11 0.03 0.02 0.05 0.10 0.08
0.00 0.00 0.00 0.00 0.00 0.00 0.00 0.00 0.00 0.02 0.06 0.11 0.09 0.08 0.12 0.16 0.27 0.38 0.54 0.58 0.88 1.10 0.93 0.84 0.53 0.36 0.29 0.16 0.01 0.00 0.15 0.10
0.00 0.00 0.00 0.00 0.00 0.00 0.00 0.00 0.00 0.01 0.03 0.04 0.09 0.15 0.16 0.28 0.38 0.55 0.75 0.80 1.02 0.68 0.47 0.35 0.34 0.32 0.31 0.34 0.17 0.06 0.16 0.19
0.00 0.00 0.00 0.00 0.00 0.00 0.00 0.00 0.00 0.00 0.01 0.01 0.06 0.08 0.13 0.13 0.26 0.32 0.25 0.28 0.36 0.43 0.47 0.36 0.31 0.25 0.26 0.29 0.27 0.22 0.15 0.19
0.00 0.00 0.00 0.00 0.00 0.00 0.00 0.01 0.01 0.00 0.01 0.02 0.03 0.05 0.08 0.18 0.12 0.16 0.09 0.20 0.26 0.37 0.51 0.40 0.26 0.18 0.16 0.19 0.27 0.29 0.22 0.19
0.00 0.00 0.00 0.00 0.00 0.00 0.00 0.00 0.01 0.01 0.01 0.02 0.04 0.06 0.06 0.05 0.03 0.05 0.04 0.11 0.21 0.56 0.75 0.52 0.43 0.34 0.24 0.24 0.23 0.32 0.29 0.21
0.00 0.00 0.00 0.00 0.00 0.00 0.00 0.00 0.00 0.01 0.01 0.01 0.02 0.03 0.04 0.03 0.02 0.01 0.02 0.03 0.10 0.25 0.49 0.51 0.41 0.35 0.36 0.37 0.16 0.15 0.24 0.21
0.00 0.00 0.00 0.00 0.00 0.00 0.00 0.00 0.00 0.01 0.01 0.02 0.01 0.03 0.03 0.02 0.01 0.01 0.03 0.05 0.11 0.25 0.51 0.56 0.53 0.35 0.36 0.24 0.15 0.17 0.17 0.18
0.00 0.00 0.02 0.02 0.07 0.02 0.01 0.00 0.00 0.00 0.00 0.01 0.02 0.03 0.05 0.03 0.04 0.02 0.04 0.07 0.10 0.27 0.47 0.70 0.59 0.47 0.34 0.23 0.21 0.22 0.17 0.13
0.00 0.00 0.00 0.02 0.04 0.04 0.02 0.02 0.02 0.01 0.01 0.00 0.01 0.03 0.05 0.04 0.05 0.12 0.20 0.14 0.12 0.17 0.36 0.74 0.56 0.39 0.29 0.26 0.23 0.26 0.19 0.16
0.00 0.00 0.00 0.00 0.05 0.05 0.07 0.07 0.03 0.02 0.01 0.01 0.01 0.01 0.03 0.06 0.09 0.13 0.28 0.28 0.21 0.19 0.31 0.48 0.51 0.41 0.26 0.19 0.20 0.17 0.16 0.19
0.00 0.00 0.00 0.02 0.10 0.16 0.16 0.14 0.07 0.02 0.02 0.01 0.01 0.01 0.03 0.05 0.12 0.22 0.12 0.21 0.15 0.17 0.32 0.45 0.37 0.44 0.51 0.24 0.26 0.21 0.16 0.12
0.00 0.00 0.00 0.02 0.02 0.03 0.02 0.02 0.03 0.03 0.02 0.04 0.01 0.01 0.02 0.03 0.07 0.19 0.31 0.24 0.18 0.16 0.28 0.46 0.57 0.41 0.72 0.76 0.49 0.35 0.19 0.17
0.00 0.00 0.00 0.00 0.01 0.01 0.02 0.04 0.06 0.08 0.09 0.08 0.05 0.02 0.02 0.03 0.04 0.07 0.15 0.38 0.50 0.32 0.25 0.43 0.49 0.47 0.50 0.54 0.78 0.82 0.55 0.33
0.00 0.00 0.00 0.01 0.01 0.02 0.04 0.07 0.09 0.12 0.06 0.06 0.04 0.04 0.07 0.07 0.11 0.11 0.14 0.22 0.49 0.50 0.28 0.23 0.36 0.42 0.36 0.30 0.32 0.36 0.22 0.27
0.00 0.00 0.00 0.01 0.00 0.00 0.01 0.01 0.01 0.01 0.02 0.02 0.05 0.11 0.10 0.10 0.16 0.27 0.20 0.17 0.32 0.38 0.30 0.25 0.26 0.30 0.39 0.20 0.10 0.07 0.10 0.16
0.00 0.00 0.00 0.00 0.00 0.00 0.01 0.00 0.00 0.00 0.03 0.05 0.05 0.09 0.23 0.32 0.18 0.26 0.28 0.21 0.22 0.33 0.29 0.28 0.26 0.18 0.15 0.14 0.13 0.12 0.15 0.19
0.00 0.00 0.00 0.00 0.00 0.00 0.00 0.00 0.00 0.00 0.01 0.04 0.04 0.08 0.23 0.36 0.41 0.42 0.30 0.22 0.18 0.25 0.30 0.26 0.19 0.19 0.15 0.10 0.06 0.04 0.04 0.07
0.01 0.00 0.00 0.01 0.01 0.00 0.01 0.02 0.03 0.01 0.01 0.02 0.02 0.05 0.10 0.19 0.33 0.41 0.42 0.31 0.28 0.28 0.36 0.32 0.26 0.21 0.15 0.11 0.05 0.03 0.02 0.02
0.07 0.06 0.06 0.05 0.04 0.04 0.06 0.07 0.06 0.04 0.04 0.03 0.03 0.06 0.11 0.16 0.28 0.48 0.50 0.52 0.46 0.33 0.37 0.35 0.31 0.27 0.20 0.16 0.11 0.06 0.04 0.04

GFSFLT2_prec_precacc24_117.txt.gz
Total_Precipitation_Accumulation
0.00 0.00 0.00 0.00 0.00 0.00 0.00 0.00 0.00 0.01 0.01 0.01 0.04 0.10 0.09 0.04 0.10 0.24 0.43 0.44 0.33 0.06 0.13 0.15 0.03 0.09 0.11 0.03 0.02 0.02 0.05 0.08
0.00 0.00 0.00 0.00 0.00 0.00 0.00 0.00 0.00 0.01 0.01 0.03 0.04 0.02 0.06 0.09 0.21 0.35 0.48 0.50 0.76 0.97 0.89 0.80 0.47 0.32 0.29 0.16 0.01 0.00 0.12 0.09
0.00 0.00 0.00 0.00 0.00 0.00 0.00 0.00 0.00 0.01 0.01 0.00 0.01 0.04 0.03 0.06 0.15 0.31 0.55 0.56 0.67 0.44 0.34 0.29 0.29 0.27 0.29 0.33 0.17 0.06 0.16 0.18
0.00 0.00 0.00 0.00 0.00 0.00 0.00 0.00 0.00 0.00 0.00 0.00 0.01 0.01 0.03 0.02 0.07 0.17 0.23 0.23 0.15 0.16 0.30 0.21 0.21 0.23 0.23 0.28 0.27 0.22 0.15 0.19
0.00 0.01 0.00 0.00 0.00 0.00 0.00 0.00 0.00 0.00 0.00 0.00 0.00 0.00 0.02 0.09 0.09 0.10 0.07 0.13 0.15 0.23 0.30 0.18 0.14 0.14 0.13 0.17 0.27 0.29 0.22 0.19
0.00 0.00 0.00 0.00 0.00 0.00 0.00 0.00 0.00 0.00 0.00 0.00 0.01 0.01 0.02 0.03 0.02 0.03 0.04 0.07 0.13 0.41 0.53 0.24 0.24 0.29 0.21 0.20 0.21 0.32 0.29 0.21
0.00 0.00 0.00 0.00 0.00 0.00 0.00 0.00 0.00 0.00 0.00 0.01 0.01 0.01 0.01 0.02 0.01 0.00 0.02 0.03 0.07 0.12 0.17 0.16 0.14 0.26 0.30 0.35 0.17 0.15 0.24 0.21
0.00 0.00 0.01 0.02 0.02 0.00 0.00 0.00 0.00 0.00 0.00 0.00 0.00 0.02 0.02 0.02 0.01 0.00 0.01 0.03 0.06 0.10 0.16 0.20 0.27 0.22 0.31 0.21 0.16 0.18 0.17 0.18
0.00 0.00 0.02 0.05 0.11 0.03 0.01 0.00 0.00 0.00 0.00 0.00 0.00 0.02 0.03 0.02 0.01 0.00 0.01 0.04 0.06 0.07 0.18 0.41 0.37 0.37 0.34 0.23 0.23 0.24 0.18 0.14
0.00 0.00 0.00 0.02 0.04 0.04 0.02 0.02 0.01 0.00 0.00 0.00 0.00 0.01 0.02 0.02 0.02 0.02 0.07 0.08 0.08 0.07 0.18 0.57 0.41 0.31 0.29 0.26 0.24 0.26 0.19 0.17
0.00 0.00 0.00 0.00 0.05 0.05 0.07 0.07 0.03 0.01 0.00 0.00 0.00 0.00 0.01 0.01 0.02 0.03 0.08 0.16 0.16 0.12 0.11 0.32 0.38 0.37 0.27 0.20 0.21 0.17 0.16 0.20
0.00 0.00 0.00 0.02 0.10 0.16 0.16 0.13 0.07 0.01 0.01 0.01 0.00 0.00 0.01 0.02 0.03 0.05 0.05 0.08 0.10 0.12 0.18 0.28 0.28 0.43 0.52 0.25 0.27 0.21 0.16 0.13
0.00 0.00 0.00 0.02 0.02 0.02 0.02 0.02 0.02 0.02 0.01 0.04 0.01 0.00 0.00 0.01 0.03 0.07 0.23 0.18 0.08 0.12 0.22 0.36 0.45 0.41 0.73 0.76 0.49 0.36 0.20 0.17
0.00 0.00 0.00 0.00 0.00 0.01 0.02 0.03 0.06 0.08 0.08 0.07 0.04 0.02 0.01 0.02 0.02 0.02 0.08 0.29 0.35 0.19 0.18 0.35 0.41 0.45 0.51 0.55 0.77 0.82 0.55 0.33
0.00 0.00 0.00 0.01 0.01 0.02 0.04 0.07 0.09 0.11 0.05 0.05 0.03 0.03 0.06 0.04 0.07 0.08 0.08 0.09 0.33 0.39 0.23 0.17 0.32 0.40 0.35 0.30 0.31 0.36 0.21 0.27
0.00 0.00 0.00 0.00 0.00 0.00 0.01 0.00 0.00 0.00 0.01 0.01 0.05 0.11 0.07 0.05 0.08 0.13 0.11 0.06 0.12 0.25 0.24 0.21 0.23 0.29 0.39 0.20 0.10 0.07 0.10 0.16
0.00 0.00 0.00 0.00 0.00 0.00 0.01 0.00 0.00 0.00 0.01 0.03 0.03 0.06 0.09 0.15 0.08 0.11 0.15 0.11 0.12 0.20 0.21 0.22 0.23 0.17 0.16 0.13 0.14 0.12 0.15 0.19
0.00 0.00 0.00 0.00 0.00 0.00 0.00 0.00 0.00 0.00 0.00 0.03 0.04 0.04 0.13 0.14 0.19 0.22 0.18 0.12 0.11 0.18 0.23 0.21 0.17 0.18 0.15 0.09 0.06 0.04 0.05 0.07
0.01 0.00 0.00 0.01 0.01 0.00 0.01 0.02 0.03 0.00 0.00 0.02 0.04 0.06 0.04 0.06 0.14 0.21 0.22 0.18 0.21 0.22 0.31 0.28 0.25 0.20 0.15 0.11 0.06 0.03 0.03 0.03
0.07 0.06 0.06 0.05 0.04 0.04 0.06 0.07 0.06 0.04 0.03 0.03 0.03 0.05 0.07 0.07 0.14 0.31 0.31 0.33 0.36 0.29 0.32 0.34 0.31 0.26 0.20 0.16 0.11 0.08 0.08 0.06

GFSFLT2_prec_precacc24_123.txt.gz
Total_Precipitation_Accumulation
0.00 0.00 0.00 0.00 0.00 0.00 0.00 0.00 0.00 0.00 0.00 0.00 0.00 0.00 0.00 0.00 0.03 0.12 0.18 0.23 0.15 0.02 0.06 0.08 0.02 0.05 0.04 0.00 0.00 0.00 0.10 0.38
0.01 0.00 0.00 0.00 0.00 0.00 0.00 0.00 0.00 0.00 0.00 0.00 0.00 0.00 0.00 0.00 0.04 0.09 0.25 0.32 0.37 0.35 0.16 0.16 0.15 0.08 0.12 0.09 0.01 0.00 0.04 0.33
0.01 0.00 0.00 0.00 0.00 0.00 0.00 0.00 0.00 0.00 0.00 0.00 0.00 0.00 0.00 0.00 0.00 0.02 0.12 0.21 0.22 0.03 0.00 0.01 0.01 0.04 0.09 0.16 0.13 0.05 0.06 0.24
0.00 0.02 0.01 0.00 0.00 0.00 0.00 0.00 0.00 0.00 0.00 0.00 0.00 0.00 0.00 0.00 0.00 0.02 0.09 0.14 0.10 0.01 0.00 0.00 0.00 0.00 0.02 0.09 0.16 0.17 0.15 0.17
0.01 0.02 0.04 0.01 0.01 0.00 0.00 0.00 0.00 0.00 0.00 0.00 0.00 0.00 0.01 0.01 0.04 0.02 0.05 0.05 0.04 0.06 0.15 0.05 0.01 0.00 0.00 0.04 0.15 0.23 0.21 0.19
0.04 0.04 0.04 0.03 0.13 0.18 0.01 0.01 0.00 0.00 0.00 0.00 0.00 0.00 0.01 0.01 0.01 0.02 0.04 0.03 0.04 0.13 0.25 0.08 0.02 0.01 0.03 0.04 0.11 0.25 0.28 0.24
0.03 0.06 0.08 0.09 0.11 0.43 0.19 0.07 0.06 0.01 0.00 0.00 0.00 0.00 0.00 0.00 0.00 0.00 0.01 0.03 0.05 0.06 0.09 0.06 0.02 0.01 0.05 0.13 0.10 0.10 0.24 0.23
0.00 0.01 0.09 0.21 0.27 0.38 0.26 0.26 0.22 0.08 0.01 0.00 0.00 0.00 0.00 0.00 0.00 0.00 0.00 0.00 0.01 0.04 0.05 0.06 0.06 0.02 0.05 0.05 0.11 0.09 0.16 0.20
0.00 0.00 0.02 0.10 0.23 0.30 0.32 0.30 0.44 0.46 0.17 0.03 0.00 0.00 0.01 0.00 0.00 0.00 0.00 0.00 0.01 0.02 0.04 0.08 0.08 0.07 0.09 0.08 0.08 0.12 0.17 0.17
0.00 0.00 0.00 0.02 0.04 0.12 0.27 0.31 0.35 0.34 0.24 0.18 0.07 0.03 0.01 0.01 0.00 0.00 0.00 0.00 0.01 0.03 0.03 0.06 0.09 0.07 0.08 0.10 0.09 0.14 0.18 0.17
0.00 0.00 0.00 0.00 0.05 0.05 0.09 0.14 0.19 0.13 0.18 0.22 0.26 0.24 0.11 0.04 0.01 0.01 0.00 0.01 0.01 0.01 0.03 0.06 0.06 0.06 0.06 0.12 0.14 0.12 0.16 0.20
0.00 0.00 0.00 0.01 0.10 0.16 0.16 0.13 0.09 0.06 0.08 0.24 0.27 0.23 0.17 0.16 0.05 0.03 0.02 0.03 0.01 0.02 0.04 0.05 0.05 0.09 0.16 0.17 0.22 0.17 0.16 0.13
0.00 0.00 0.00 0.01 0.01 0.02 0.01 0.01 0.01 0.06 0.08 0.09 0.21 0.20 0.23 0.13 0.08 0.06 0.05 0.04 0.02 0.03 0.04 0.05 0.11 0.17 0.39 0.57 0.41 0.36 0.21 0.17
0.00 0.00 0.00 0.00 0.00 0.01 0.02 0.03 0.04 0.07 0.10 0.15 0.13 0.10 0.11 0.20 0.17 0.10 0.05 0.06 0.04 0.03 0.04 0.07 0.08 0.18 0.34 0.43 0.67 0.80 0.55 0.33
0.00 0.00 0.00 0.00 0.01 0.02 0.03 0.06 0.08 0.09 0.04 0.04 0.05 0.11 0.18 0.17 0.18 0.19 0.15 0.09 0.04 0.04 0.05 0.05 0.13 0.17 0.21 0.27 0.31 0.35 0.21 0.27
0.00 0.00 0.00 0.00 0.00 0.00 0.00 0.00 0.00 0.00 0.01 0.01 0.04 0.20 0.23 0.28 0.30 0.29 0.31 0.15 0.07 0.07 0.08 0.12 0.12 0.09 0.25 0.19 0.11 0.07 0.10 0.18
0.00 0.00 0.00 0.00 0.00 0.00 0.01 0.00 0.00 0.00 0.01 0.02 0.03 0.08 0.21 0.42 0.43 0.47 0.51 0.62 0.31 0.30 0.12 0.14 0.09 0.07 0.07 0.12 0.14 0.13 0.17 0.25
0.00 0.00 0.00 0.00 0.00 0.00 0.00 0.00 0.00 0.00 0.00 0.02 0.05 0.09 0.17 0.20 0.26 0.35 0.39 0.46 0.50 0.63 0.73 0.41 0.34 0.22 0.13 0.08 0.06 0.04 0.04 0.09
0.01 0.00 0.00 0.01 0.01 0.00 0.01 0.01 0.01 0.00 0.00 0.01 0.04 0.10 0.10 0.08 0.20 0.20 0.20 0.20 0.34 0.53 0.73 0.75 0.84 0.40 0.16 0.12 0.07 0.04 0.03 0.12
0.07 0.06 0.06 0.05 0.04 0.03 0.05 0.04 0.04 0.03 0.03 0.02 0.03 0.08 0.11 0.12 0.16 0.27 0.27 0.36 0.42 0.42 0.49 0.45 0.42 0.39 0.26 0.18 0.14 0.11 0.10 0.07

GFSFLT2_prec_precacc24_129.txt.gz
Total_Precipitation_Accumulation
0.00 0.00 0.01 0.00 0.00 0.00 0.00 0.00 0.00 0.00 0.00 0.00 0.00 0.00 0.00 0.00 0.01 0.03 0.10 0.14 0.06 0.00 0.00 0.00 0.00 0.00 0.00 0.00 0.00 0.00 0.10 0.38
0.01 0.00 0.00 0.00 0.00 0.00 0.00 0.00 0.00 0.00 0.00 0.00 0.00 0.00 0.00 0.00 0.01 0.01 0.04 0.10 0.06 0.00 0.00 0.00 0.00 0.00 0.00 0.00 0.00 0.00 0.04 0.32
0.01 0.00 0.00 0.00 0.00 0.00 0.00 0.00 0.00 0.00 0.00 0.00 0.00 0.00 0.00 0.00 0.00 0.00 0.05 0.05 0.02 0.00 0.00 0.00 0.00 0.00 0.00 0.00 0.00 0.00 0.02 0.21
0.03 0.04 0.02 0.01 0.00 0.00 0.00 0.00 0.00 0.00 0.00 0.00 0.00 0.00 0.00 0.00 0.00 0.01 0.06 0.08 0.04 0.00 0.00 0.00 0.00 0.00 0.00 0.00 0.00 0.00 0.02 0.04
0.04 0.05 0.07 0.03 0.01 0.00 0.00 0.00 0.00 0.01 0.00 0.00 0.00 0.00 0.01 0.01 0.04 0.02 0.05 0.04 0.04 0.00 0.00 0.00 0.00 0.00 0.00 0.00 0.01 0.04 0.07 0.05
0.07 0.08 0.08 0.08 0.17 0.20 0.03 0.04 0.02 0.01 0.00 0.01 0.01 0.01 0.01 0.01 0.01 0.02 0.04 0.03 0.04 0.01 0.00 0.00 0.00 0.01 0.02 0.01 0.04 0.05 0.04 0.09
0.04 0.08 0.08 0.11 0.18 0.54 0.32 0.26 0.30 0.18 0.01 0.02 0.03 0.04 0.01 0.00 0.00 0.00 0.01 0.03 0.04 0.04 0.01 0.00 0.00 0.01 0.05 0.10 0.05 0.01 0.03 0.06
0.00 0.01 0.09 0.22 0.29 0.42 0.35 0.53 0.62 0.58 0.26 0.07 0.27 0.23 0.20 0.09 0.01 0.01 0.00 0.00 0.02 0.03 0.02 0.01 0.02 0.02 0.03 0.04 0.10 0.04 0.05 0.07
0.00 0.00 0.01 0.10 0.23 0.30 0.32 0.34 0.60 0.82 0.78 0.49 0.34 0.47 0.31 0.27 0.15 0.07 0.04 0.02 0.01 0.02 0.03 0.07 0.06 0.05 0.06 0.05 0.06 0.06 0.08 0.08
0.00 0.00 0.00 0.01 0.04 0.12 0.27 0.32 0.40 0.50 0.52 0.70 0.87 0.81 0.78 0.58 0.22 0.08 0.14 0.16 0.10 0.06 0.03 0.04 0.07 0.05 0.05 0.06 0.05 0.07 0.07 0.05
0.00 0.00 0.00 0.00 0.03 0.04 0.08 0.11 0.18 0.16 0.23 0.37 0.66 1.17 1.43 1.13 0.85 0.61 0.38 0.25 0.17 0.14 0.09 0.08 0.04 0.04 0.03 0.04 0.06 0.06 0.06 0.06
0.00 0.00 0.00 0.00 0.02 0.07 0.04 0.03 0.04 0.05 0.09 0.31 0.40 0.53 0.70 0.94 1.04 0.87 0.73 0.55 0.31 0.20 0.11 0.12 0.08 0.06 0.04 0.04 0.06 0.06 0.06 0.03
0.00 0.00 0.00 0.00 0.00 0.01 0.00 0.00 0.00 0.05 0.07 0.06 0.24 0.30 0.44 0.53 0.89 1.55 1.32 0.67 0.45 0.46 0.38 0.25 0.23 0.23 0.22 0.09 0.09 0.08 0.09 0.04
0.00 0.00 0.00 0.00 0.00 0.00 0.00 0.00 0.00 0.01 0.04 0.10 0.10 0.12 0.17 0.38 0.44 0.62 0.99 0.98 0.70 0.53 0.52 0.55 0.46 0.50 0.45 0.24 0.16 0.27 0.21 0.11
0.00 0.00 0.00 0.00 0.00 0.00 0.01 0.02 0.02 0.04 0.02 0.02 0.04 0.09 0.16 0.20 0.29 0.34 0.54 0.99 0.85 0.49 0.35 0.43 0.44 0.47 0.52 0.35 0.23 0.12 0.08 0.12
0.00 0.00 0.00 0.00 0.00 0.00 0.00 0.00 0.00 0.00 0.00 0.00 0.02 0.13 0.20 0.24 0.26 0.32 0.42 0.41 0.64 0.58 0.43 0.36 0.41 0.30 0.61 0.31 0.15 0.11 0.12 0.16
0.00 0.00 0.00 0.00 0.00 0.00 0.00 0.00 0.00 0.00 0.00 0.00 0.02 0.04 0.17 0.35 0.39 0.46 0.59 0.82 0.43 0.72 0.68 0.59 0.48 0.39 0.24 0.19 0.27 0.24 0.22 0.27
0.00 0.00 0.00 0.00 0.00 0.00 0.00 0.00 0.00 0.00 0.00 0.01 0.04 0.08 0.15 0.16 0.19 0.29 0.35 0.52 0.71 0.80 1.06 0.91 0.93 0.68 0.46 0.43 0.31 0.25 0.15 0.19
0.01 0.00 0.00 0.00 0.00 0.00 0.00 0.00 0.00 0.00 0.00 0.01 0.04 0.10 0.10 0.06 0.17 0.18 0.17 0.16 0.37 0.67 0.97 1.18 1.49 1.47 1.28 0.92 0.67 0.54 0.39 0.37
0.07 0.06 0.05 0.02 0.01 0.01 0.01 0.01 0.01 0.01 0.01 0.02 0.02 0.06 0.09 0.12 0.16 0.26 0.26 0.34 0.40 0.43 0.56 0.65 0.74 1.06 1.77 2.10 2.02 1.56 1.26 1.19

GFSFLT2_prec_precacc24_132.txt.gz
Total_Precipitation_Accumulation
0.00 0.00 0.01 0.00 0.00 0.00 0.00 0.00 0.00 0.00 0.00 0.00 0.00 0.00 0.00 0.00 0.00 0.00 0.01 0.03 0.02 0.00 0.00 0.00 0.00 0.00 0.00 0.00 0.00 0.00 0.10 0.38
0.01 0.00 0.00 0.00 0.00 0.01 0.03 0.04 0.01 0.00 0.00 0.00 0.00 0.00 0.00 0.00 0.01 0.00 0.03 0.06 0.03 0.00 0.00 0.00 0.00 0.00 0.00 0.00 0.00 0.00 0.04 0.32
0.01 0.01 0.00 0.00 0.00 0.01 0.01 0.07 0.07 0.00 0.00 0.00 0.00 0.00 0.00 0.00 0.00 0.00 0.05 0.04 0.02 0.00 0.00 0.00 0.00 0.00 0.00 0.00 0.00 0.00 0.02 0.21
0.04 0.05 0.03 0.01 0.01 0.00 0.00 0.01 0.05 0.03 0.03 0.01 0.00 0.00 0.00 0.00 0.00 0.01 0.06 0.08 0.04 0.00 0.00 0.00 0.00 0.00 0.00 0.00 0.00 0.00 0.01 0.04
0.04 0.05 0.07 0.03 0.01 0.00 0.00 0.00 0.02 0.05 0.06 0.08 0.04 0.03 0.03 0.01 0.04 0.02 0.05 0.04 0.04 0.00 0.00 0.00 0.00 0.00 0.00 0.00 0.00 0.00 0.01 0.02
0.07 0.08 0.08 0.08 0.17 0.20 0.03 0.05 0.04 0.04 0.04 0.06 0.10 0.09 0.09 0.06 0.02 0.03 0.04 0.03 0.04 0.02 0.00 0.00 0.00 0.01 0.02 0.01 0.00 0.00 0.01 0.09
0.04 0.08 0.08 0.11 0.18 0.54 0.32 0.27 0.32 0.22 0.10 0.12 0.12 0.12 0.09 0.08 0.05 0.03 0.02 0.03 0.05 0.05 0.01 0.00 0.00 0.01 0.05 0.10 0.05 0.01 0.02 0.05
0.00 0.01 0.09 0.21 0.29 0.42 0.35 0.53 0.62 0.59 0.30 0.16 0.40 0.37 0.30 0.19 0.10 0.08 0.06 0.03 0.02 0.04 0.04 0.02 0.01 0.02 0.03 0.04 0.10 0.04 0.05 0.04
0.00 0.00 0.00 0.09 0.19 0.29 0.32 0.34 0.60 0.82 0.79 0.53 0.42 0.54 0.43 0.42 0.31 0.19 0.17 0.14 0.06 0.04 0.07 0.09 0.05 0.05 0.06 0.05 0.06 0.06 0.08 0.07
0.00 0.00 0.00 0.00 0.01 0.09 0.25 0.31 0.39 0.49 0.52 0.70 0.87 0.83 0.84 0.67 0.38 0.28 0.42 0.45 0.27 0.13 0.07 0.11 0.10 0.07 0.05 0.08 0.05 0.07 0.07 0.05
0.00 0.00 0.00 0.00 0.00 0.00 0.02 0.08 0.17 0.15 0.23 0.37 0.66 1.17 1.42 1.14 0.93 0.91 0.80 0.87 0.86 0.52 0.20 0.15 0.11 0.10 0.06 0.08 0.08 0.05 0.05 0.04
0.00 0.00 0.00 0.00 0.00 0.00 0.01 0.02 0.04 0.05 0.08 0.30 0.40 0.53 0.70 0.93 1.05 1.00 1.06 1.01 0.86 0.74 0.45 0.26 0.21 0.20 0.17 0.18 0.16 0.06 0.07 0.02
0.00 0.00 0.00 0.00 0.00 0.00 0.00 0.00 0.00 0.05 0.07 0.06 0.24 0.30 0.44 0.53 0.89 1.56 1.34 0.73 0.51 0.71 0.87 0.63 0.44 0.47 0.44 0.17 0.21 0.11 0.09 0.02
0.00 0.00 0.00 0.00 0.00 0.00 0.00 0.00 0.00 0.00 0.03 0.09 0.10 0.11 0.17 0.38 0.44 0.62 1.00 1.02 0.83 0.71 0.79 0.87 0.71 0.71 0.70 0.52 0.21 0.21 0.10 0.03
0.00 0.00 0.00 0.00 0.00 0.00 0.00 0.00 0.01 0.02 0.01 0.02 0.04 0.09 0.14 0.19 0.26 0.31 0.50 0.97 0.89 0.59 0.51 0.67 0.76 0.79 0.79 0.62 0.45 0.18 0.16 0.05
0.00 0.00 0.00 0.00 0.00 0.00 0.00 0.00 0.00 0.00 0.00 0.00 0.01 0.12 0.19 0.24 0.26 0.29 0.39 0.40 0.63 0.63 0.53 0.50 0.55 0.57 1.17 0.76 0.39 0.28 0.28 0.21
0.00 0.00 0.00 0.00 0.00 0.00 0.00 0.00 0.00 0.00 0.00 0.00 0.02 0.04 0.16 0.34 0.38 0.45 0.58 0.81 0.41 0.71 0.74 0.69 0.62 0.52 0.33 0.60 0.71 0.55 0.57 0.29
0.00 0.00 0.00 0.00 0.00 0.00 0.00 0.00 0.00 0.00 0.00 0.01 0.04 0.07 0.12 0.15 0.18 0.28 0.34 0.51 0.69 0.78 1.05 0.92 0.96 0.78 0.57 0.55 0.55 0.52 0.35 0.27
0.01 0.00 0.00 0.00 0.00 0.00 0.00 0.00 0.00 0.00 0.00 0.01 0.04 0.08 0.09 0.05 0.15 0.17 0.16 0.15 0.35 0.65 0.94 1.17 1.50 1.58 1.46 1.10 0.85 0.74 0.65 0.59
0.06 0.05 0.03 0.01 0.00 0.00 0.00 0.01 0.02 0.01 0.01 0.01 0.02 0.05 0.08 0.10 0.15 0.25 0.25 0.32 0.38 0.40 0.53 0.63 0.73 1.06 1.82 2.37 2.42 1.84 1.45 1.44